User: anonymous   Login
Location: Harburg
(48.7667°N, 10.6667°E)
Time: 02:42:20
(UTC+00:00)
Language:

Cosmos 2263 Rocket - Orbit

View from above orbital plane
View from above orbital plane
View from above satellite
View from above satellite

Ground track
Ground track

The orbit data is extracted from the following two-line orbital elements,

1 22803U 93059B   20334.60939405 -.00000157 +00000-0 -54196-4 0  9993
2 22803 070.9878 111.2134 0019607 265.2494 094.6390 14.16828728406697
Epoch (UTC): 29 November 2020 14:37:31
Eccentricity: 0.0019607
inclination: 70.9878°
perigee height: 822 km
apogee height: 850 km
right ascension of ascending node: 111.2134°
argument of perigee: 265.2494°
revolutions per day: 14.16828728
mean anomaly at epoch: 94.6390°
orbit number at epoch: 40669

The dashed part of the orbit path shows where the satellite is in the earth's shadow,  

DLR